MST,Max TemperatureF,Mean TemperatureF,Min TemperatureF,Max Dew PointF,MeanDew PointF,Min DewpointF,Max Humidity, Mean Humidity, Min Humidity, Max Sea Level PressureIn, Mean Sea Level PressureIn, Min Sea Level PressureIn, Max VisibilityMiles, Mean VisibilityMiles, Min VisibilityMiles, Max Wind SpeedMPH, Mean Wind SpeedMPH, Max Gust SpeedMPH,PrecipitationIn, CloudCover, Events, WindDirDegrees
2012-12-1,75,63,51,50,48,45,76,54,38,30.14,30.07,30.02,10,10,10,7,5,,0.00,4,,43
2012-12-2,75,63,51,46,45,43,71,50,36,30.15,30.06,30.00,10,10,10,8,6,,0.00,2,,64
2012-12-3,75,63,51,48,46,37,76,50,27,30.15,30.10,30.06,10,10,10,9,6,,0.00,4,,29
2012-12-4,78,64,50,46,45,45,82,52,30,30.26,30.19,30.13,10,10,10,7,5,,0.00,6,,120
2012-12-5,80,66,53,45,40,36,67,40,21,30.14,30.03,29.96,10,10,10,6,4,,0.00,4,,60
2012-12-6,73,62,50,45,41,37,62,44,29,29.96,29.89,29.83,10,10,10,7,6,,0.00,5,,62
2012-12-7,73,60,48,45,42,37,71,49,33,29.95,29.90,29.87,10,10,10,9,4,,0.00,0,,210
2012-12-8,71,58,46,43,40,37,76,50,29,29.98,29.92,29.88,10,10,10,9,6,,0.00,1,,18
2012-12-9,69,56,42,36,32,12,66,39,14,30.07,30.01,29.96,10,10,10,20,8,,0.00,2,,358
2012-12-10,64,54,44,18,13,9,31,19,13,30.19,30.10,30.02,10,10,10,14,8,,0.00,1,,238
2012-12-11,66,52,37,27,19,10,41,27,17,30.13,30.05,29.99,10,10,10,9,7,,0.00,2,,59
2012-12-12,69,54,39,25,23,21,49,30,16,30.05,29.96,29.88,10,10,10,8,7,,0.00,3,,54
2012-12-13,69,55,41,52,36,25,72,49,31,29.94,29.86,29.71,10,10,10,12,5,20,0.00,6,Rain,48
2012-12-14,60,54,48,50,44,39,94,70,48,30.03,29.92,29.75,10,10,10,16,11,,0.00,5,Rain,213
2012-12-15,53,50,48,54,51,48,100,99,94,30.01,29.97,29.93,10,8,5,14,6,,0.00,7,Rain,113
2012-12-16,57,50,44,46,43,39,100,76,51,30.18,30.13,30.07,10,10,10,7,4,,0.00,3,,212
2012-12-17,59,50,41,45,43,39,100,76,48,30.20,30.13,30.03,10,10,10,7,6,,0.00,1,,78
2012-12-18,59,50,42,50,45,43,100,76,55,29.96,29.85,29.75,10,10,10,7,5,,0.00,6,,114
2012-12-19,55,47,39,36,32,27,81,55,33,30.25,30.13,29.95,10,10,10,21,10,,0.00,1,,241
2012-12-20,62,48,35,30,25,18,75,39,18,30.36,30.25,30.15,10,10,10,12,8,,0.00,5,,60
2012-12-21,66,54,41,39,27,19,81,36,17,30.15,30.10,30.05,10,10,10,9,7,,0.00,4,,72
2012-12-22,66,56,46,41,36,30,76,48,28,30.13,30.09,30.05,10,10,10,7,4,,0.00,4,,322
2012-12-23,64,50,37,43,37,34,93,60,34,30.18,30.09,30.03,10,10,10,6,4,,0.00,4,,33
2012-12-24,64,53,42,45,41,37,87,62,42,30.09,29.98,29.89,10,10,8,17,7,,0.00,3,,248
2012-12-25,55,50,46,28,20,14,46,30,20,30.15,30.08,30.05,10,10,10,14,8,,0.00,7,,18
2012-12-26,60,48,35,32,29,27,81,49,27,29.97,29.91,29.84,10,10,10,9,4,,0.00,6,,250
2012-12-27,57,46,35,36,34,32,93,61,41,29.99,29.93,29.89,10,10,10,17,4,,0.00,4,,230
2012-12-28,57,45,33,36,32,28,100,56,36,30.21,30.15,30.11,10,10,10,12,4,,0.00,0,,106
2012-12-29,60,46,33,32,28,27,87,45,27,30.14,30.05,29.96,10,10,10,12,7,,0.00,5,,74
2012-12-30,53,46,39,41,34,30,81,62,44,29.96,29.91,29.86,10,10,10,8,3,,0.00,7,,243
2012-12-31,55,45,35,39,33,25,100,65,31,30.18,30.12,30.03,10,10,10,16,6,,0.00,1,,238